Year,Month,Day,Hour,Minute,Value (Times are PST for windgust in km/hr)
2011,03,04,00,00,3.20
2011,03,04,00,05,8.10
2011,03,04,00,06,8.10
2011,03,04,00,07,11.30
2011,03,04,00,08,11.30
2011,03,04,00,09,12.90
2011,03,04,00,10,9.60
2011,03,04,00,11,8.10
2011,03,04,00,12,8.10
2011,03,04,00,13,8.10
2011,03,04,00,14,6.40
2011,03,04,00,15,6.40
2011,03,04,00,16,6.40
2011,03,04,00,17,8.10
2011,03,04,00,18,12.90
2011,03,04,00,19,9.60
2011,03,04,00,20,11.30
2011,03,04,00,21,8.10
2011,03,04,00,22,3.20
2011,03,04,00,23,3.20
2011,03,04,00,24,11.30
2011,03,04,00,25,12.90
2011,03,04,00,26,6.40
2011,03,04,00,27,8.10
2011,03,04,00,28,3.20
2011,03,04,00,29,8.10
2011,03,04,00,30,11.30
2011,03,04,00,31,8.10
2011,03,04,00,32,17.70
2011,03,04,00,33,11.30
2011,03,04,00,34,11.30
2011,03,04,00,35,11.30
2011,03,04,00,36,9.60
2011,03,04,00,37,12.90
2011,03,04,00,38,9.60
2011,03,04,00,39,8.10
2011,03,04,00,40,11.30
2011,03,04,00,41,9.60
2011,03,04,00,42,14.50
2011,03,04,00,43,17.70
2011,03,04,00,44,14.50
2011,03,04,00,45,17.70
2011,03,04,00,46,11.30
2011,03,04,00,47,12.90
2011,03,04,00,48,8.10
2011,03,04,00,49,9.60
2011,03,04,00,50,6.40
2011,03,04,00,51,9.60
2011,03,04,00,52,8.10
2011,03,04,00,53,9.60
2011,03,04,00,54,9.60
2011,03,04,00,55,3.20
2011,03,04,00,56,8.10
2011,03,04,00,57,9.60
2011,03,04,00,58,12.90
2011,03,04,00,59,9.60
2011,03,04,01,00,9.60
2011,03,04,01,01,4.80
2011,03,04,01,02,8.10
2011,03,04,01,03,9.60
2011,03,04,01,04,6.40
2011,03,04,01,05,9.60
2011,03,04,01,06,6.40
2011,03,04,01,07,9.60
2011,03,04,01,08,3.20
2011,03,04,01,09,9.60
2011,03,04,01,10,6.40
2011,03,04,01,11,12.90
2011,03,04,01,12,9.60
2011,03,04,01,13,9.60
2011,03,04,01,14,9.60
2011,03,04,01,15,9.60
2011,03,04,01,16,6.40
2011,03,04,01,17,6.40
2011,03,04,01,18,6.40
2011,03,04,01,19,8.10
2011,03,04,01,20,6.40
2011,03,04,01,21,14.50
2011,03,04,01,22,11.30
2011,03,04,01,23,8.10
2011,03,04,01,24,6.40
2011,03,04,01,25,1.60
2011,03,04,01,26,3.20
2011,03,04,01,27,9.60
2011,03,04,01,28,11.30
2011,03,04,01,29,8.10
2011,03,04,01,30,9.60
2011,03,04,01,31,6.40
2011,03,04,01,32,6.40
2011,03,04,01,33,8.10
2011,03,04,01,34,8.10
2011,03,04,01,35,9.60
2011,03,04,01,36,9.60
2011,03,04,01,37,3.20
2011,03,04,01,38,6.40
2011,03,04,01,39,6.40
2011,03,04,01,40,8.10
2011,03,04,01,41,3.20
2011,03,04,01,42,3.20
2011,03,04,01,43,8.10
2011,03,04,01,44,8.10
2011,03,04,01,45,8.10
2011,03,04,01,46,8.10
2011,03,04,01,47,6.40
2011,03,04,01,48,4.80
2011,03,04,01,49,6.40
2011,03,04,01,50,8.10
2011,03,04,01,51,11.30
2011,03,04,01,52,6.40
2011,03,04,01,53,6.40
2011,03,04,01,54,6.40
2011,03,04,01,55,4.80
2011,03,04,01,56,9.60
2011,03,04,01,57,3.20
2011,03,04,01,58,6.40
2011,03,04,01,59,3.20
2011,03,04,02,00,6.40
2011,03,04,02,01,6.40
2011,03,04,02,02,6.40
2011,03,04,02,03,6.40
2011,03,04,02,04,4.80
2011,03,04,02,05,14.50
2011,03,04,02,06,16.10
2011,03,04,02,07,11.30
2011,03,04,02,08,6.40
2011,03,04,02,09,6.40
2011,03,04,02,10,8.10
2011,03,04,02,11,8.10
2011,03,04,02,12,3.20
2011,03,04,02,13,3.20
2011,03,04,02,14,3.20
2011,03,04,02,15,3.20
2011,03,04,02,16,6.40
2011,03,04,02,17,6.40
2011,03,04,02,18,6.40
2011,03,04,02,19,3.20
2011,03,04,02,20,3.20
2011,03,04,02,21,3.20
2011,03,04,02,22,9.60
2011,03,04,02,23,3.20
2011,03,04,02,24,6.40
2011,03,04,02,25,6.40
2011,03,04,02,26,6.40
2011,03,04,02,27,6.40
2011,03,04,02,28,4.80
2011,03,04,02,29,4.80
2011,03,04,02,30,6.40
2011,03,04,02,31,4.80
2011,03,04,02,32,3.20
2011,03,04,02,33,1.60
2011,03,04,02,34,0.00
2011,03,04,02,35,3.20
2011,03,04,02,36,3.20
2011,03,04,02,37,11.30
2011,03,04,02,38,11.30
2011,03,04,02,39,8.10
2011,03,04,02,40,4.80
2011,03,04,02,41,6.40
2011,03,04,02,42,1.60
2011,03,04,02,43,3.20
2011,03,04,02,44,6.40
2011,03,04,02,45,3.20
2011,03,04,02,46,6.40
2011,03,04,02,47,6.40
2011,03,04,02,48,6.40
2011,03,04,02,49,6.40
2011,03,04,02,50,6.40
2011,03,04,02,51,3.20
2011,03,04,02,52,6.40
2011,03,04,02,53,3.20
2011,03,04,02,54,1.60
2011,03,04,02,55,1.60
2011,03,04,02,56,1.60
2011,03,04,02,57,0.00
2011,03,04,02,58,3.20
2011,03,04,02,59,1.60
2011,03,04,03,00,1.60
2011,03,04,03,01,1.60
2011,03,04,03,02,0.00
2011,03,04,03,03,0.00
2011,03,04,03,04,1.60
2011,03,04,03,05,1.60
2011,03,04,03,06,0.00
2011,03,04,03,07,0.00
2011,03,04,03,08,6.40
2011,03,04,03,09,6.40
2011,03,04,03,10,1.60
2011,03,04,03,11,1.60
2011,03,04,03,12,3.20
2011,03,04,03,13,3.20
2011,03,04,03,14,1.60
2011,03,04,03,15,3.20
2011,03,04,03,16,1.60
2011,03,04,03,17,0.00
2011,03,04,03,18,1.60
2011,03,04,03,19,3.20
2011,03,04,03,20,1.60
2011,03,04,03,21,0.00
2011,03,04,03,22,0.00
2011,03,04,03,23,3.20
2011,03,04,03,24,3.20
2011,03,04,03,25,3.20
2011,03,04,03,26,3.20
2011,03,04,03,27,3.20
2011,03,04,03,28,3.20
2011,03,04,03,29,1.60
2011,03,04,03,30,0.00
2011,03,04,03,31,0.00
2011,03,04,03,32,0.00
2011,03,04,03,33,0.00
2011,03,04,03,34,0.00
2011,03,04,03,35,0.00
2011,03,04,03,36,1.60
2011,03,04,03,37,3.20
2011,03,04,03,38,4.80
2011,03,04,03,39,4.80
2011,03,04,03,40,8.10
2011,03,04,03,41,8.10
2011,03,04,03,42,8.10
2011,03,04,03,43,6.40
2011,03,04,03,44,8.10
2011,03,04,03,45,6.40
2011,03,04,03,46,6.40
2011,03,04,03,47,6.40
2011,03,04,03,48,6.40
2011,03,04,03,49,1.60
2011,03,04,03,50,6.40
2011,03,04,03,51,8.10
2011,03,04,03,52,6.40
2011,03,04,03,53,0.00
2011,03,04,03,54,3.20
2011,03,04,03,55,3.20
2011,03,04,03,56,6.40
2011,03,04,03,57,9.60
2011,03,04,03,58,6.40
2011,03,04,03,59,3.20
2011,03,04,04,00,3.20
2011,03,04,04,01,8.10
2011,03,04,04,02,8.10
2011,03,04,04,03,8.10
2011,03,04,04,04,4.80
2011,03,04,04,05,6.40
2011,03,04,04,06,3.20
2011,03,04,04,07,6.40
2011,03,04,04,08,3.20
2011,03,04,04,09,8.10
2011,03,04,04,10,6.40
2011,03,04,04,11,6.40
2011,03,04,04,12,6.40
2011,03,04,04,13,4.80
2011,03,04,04,14,3.20
2011,03,04,04,15,8.10
2011,03,04,04,16,12.90
2011,03,04,04,17,6.40
2011,03,04,04,18,9.60
2011,03,04,04,19,8.10
2011,03,04,04,20,8.10
2011,03,04,04,21,11.30
2011,03,04,04,22,3.20
2011,03,04,04,23,9.60
2011,03,04,04,24,8.10
2011,03,04,04,25,4.80
2011,03,04,04,26,6.40
2011,03,04,04,27,8.10
2011,03,04,04,28,6.40
2011,03,04,04,29,3.20
2011,03,04,04,30,3.20
2011,03,04,04,31,1.60
2011,03,04,04,32,3.20
2011,03,04,04,33,1.60
2011,03,04,04,34,3.20
2011,03,04,04,35,1.60
2011,03,04,04,36,3.20
2011,03,04,04,37,3.20
2011,03,04,04,38,6.40
2011,03,04,04,39,8.10
2011,03,04,04,40,3.20
2011,03,04,04,41,3.20
2011,03,04,04,42,3.20
2011,03,04,04,43,3.20
2011,03,04,04,44,3.20
2011,03,04,04,45,6.40
2011,03,04,04,46,6.40
2011,03,04,04,47,6.40
2011,03,04,04,48,6.40
2011,03,04,04,49,3.20
2011,03,04,04,50,1.60
2011,03,04,04,51,6.40
2011,03,04,04,52,3.20
2011,03,04,04,53,6.40
2011,03,04,04,54,3.20
2011,03,04,04,55,1.60
2011,03,04,04,56,1.60
2011,03,04,04,57,3.20
2011,03,04,04,58,3.20
2011,03,04,04,59,4.80
2011,03,04,05,00,3.20
2011,03,04,05,01,8.10
2011,03,04,05,02,8.10
2011,03,04,05,03,6.40
2011,03,04,05,04,11.30
2011,03,04,05,05,9.60
2011,03,04,05,06,8.10
2011,03,04,05,07,6.40
2011,03,04,05,08,8.10
2011,03,04,05,09,9.60
2011,03,04,05,10,8.10
2011,03,04,05,11,3.20
2011,03,04,05,12,8.10
2011,03,04,05,13,3.20
2011,03,04,05,14,8.10
2011,03,04,05,15,6.40
2011,03,04,05,16,3.20
2011,03,04,05,17,3.20
2011,03,04,05,18,8.10
2011,03,04,05,19,11.30
2011,03,04,05,20,8.10
2011,03,04,05,21,9.60
2011,03,04,05,22,8.10
2011,03,04,05,23,6.40
2011,03,04,05,24,14.50
2011,03,04,05,25,11.30
2011,03,04,05,26,9.60
2011,03,04,05,27,9.60
2011,03,04,05,28,17.70
2011,03,04,05,29,8.10
2011,03,04,05,30,6.40
2011,03,04,05,31,11.30
2011,03,04,05,32,9.60
2011,03,04,05,33,6.40
2011,03,04,05,34,8.10
2011,03,04,05,35,12.90
2011,03,04,05,36,8.10
2011,03,04,05,37,3.20
2011,03,04,05,38,0.00
2011,03,04,05,39,3.20
2011,03,04,05,40,3.20
2011,03,04,05,41,6.40
2011,03,04,05,42,8.10
2011,03,04,05,43,6.40
2011,03,04,05,44,8.10
2011,03,04,05,45,8.10
2011,03,04,05,46,3.20
2011,03,04,05,47,8.10
2011,03,04,05,48,6.40
2011,03,04,05,49,1.60
2011,03,04,05,50,3.20
2011,03,04,05,51,1.60
2011,03,04,05,52,0.00
2011,03,04,05,53,1.60
2011,03,04,05,54,1.60
2011,03,04,05,55,0.00
2011,03,04,05,56,3.20
2011,03,04,05,57,1.60
2011,03,04,05,58,3.20
2011,03,04,05,59,1.60
2011,03,04,06,00,3.20
2011,03,04,06,01,1.60
2011,03,04,06,02,1.60
2011,03,04,06,03,0.00
2011,03,04,06,04,3.20
2011,03,04,06,05,3.20
2011,03,04,06,06,3.20
2011,03,04,06,07,1.60
2011,03,04,06,08,1.60
2011,03,04,06,09,3.20
2011,03,04,06,10,3.20
2011,03,04,06,11,1.60
2011,03,04,06,12,3.20
2011,03,04,06,13,6.40
2011,03,04,06,14,4.80
2011,03,04,06,15,3.20
2011,03,04,06,16,9.60
2011,03,04,06,17,1.60
2011,03,04,06,18,3.20
2011,03,04,06,19,6.40
2011,03,04,06,20,4.80
2011,03,04,06,21,3.20
2011,03,04,06,22,1.60
2011,03,04,06,23,1.60
2011,03,04,06,24,1.60
2011,03,04,06,25,1.60
2011,03,04,06,26,0.00
2011,03,04,06,27,1.60
2011,03,04,06,28,11.30
2011,03,04,06,29,6.40
2011,03,04,06,30,6.40
2011,03,04,06,31,1.60
2011,03,04,06,32,8.10
2011,03,04,06,33,6.40
2011,03,04,06,34,6.40
2011,03,04,06,35,6.40
2011,03,04,06,36,6.40
2011,03,04,06,37,8.10
2011,03,04,06,38,9.60
2011,03,04,06,39,8.10
2011,03,04,06,40,9.60
2011,03,04,06,41,6.40
2011,03,04,06,42,8.10
2011,03,04,06,43,16.10
2011,03,04,06,44,11.30
2011,03,04,06,45,6.40
2011,03,04,06,46,11.30
2011,03,04,06,47,12.90
2011,03,04,06,48,9.60
2011,03,04,06,49,6.40
2011,03,04,06,50,9.60
2011,03,04,06,51,12.90
2011,03,04,06,52,14.50
2011,03,04,06,53,8.10
2011,03,04,06,54,9.60
2011,03,04,06,55,8.10
2011,03,04,06,56,3.20
2011,03,04,06,57,9.60
2011,03,04,06,58,8.10
2011,03,04,06,59,8.10
2011,03,04,07,00,3.20
2011,03,04,07,01,6.40
2011,03,04,07,02,9.60
2011,03,04,07,03,4.80
2011,03,04,07,04,6.40
2011,03,04,07,05,11.30
2011,03,04,07,06,8.10
2011,03,04,07,07,6.40
2011,03,04,07,08,8.10
2011,03,04,07,09,12.90
2011,03,04,07,10,8.10
2011,03,04,07,11,17.70
2011,03,04,07,12,17.70
2011,03,04,07,13,17.70
2011,03,04,07,14,11.30
2011,03,04,07,15,19.30
2011,03,04,07,16,12.90
2011,03,04,07,17,9.60
2011,03,04,07,18,12.90
2011,03,04,07,19,14.50
2011,03,04,07,20,11.30
2011,03,04,07,21,20.90
2011,03,04,07,22,29.00
2011,03,04,07,23,17.70
2011,03,04,07,24,9.60
2011,03,04,07,25,17.70
2011,03,04,07,26,22.50
2011,03,04,07,27,22.50
2011,03,04,07,28,25.70
2011,03,04,07,29,19.30
2011,03,04,07,30,22.50
2011,03,04,07,31,19.30
2011,03,04,07,32,19.30
2011,03,04,07,33,24.20
2011,03,04,07,34,14.50
2011,03,04,07,35,29.00
2011,03,04,07,36,16.10
2011,03,04,07,37,11.30
2011,03,04,07,38,11.30
2011,03,04,07,39,14.50
2011,03,04,07,40,11.30
2011,03,04,07,41,8.10
2011,03,04,07,42,11.30
2011,03,04,07,43,9.60
2011,03,04,07,44,8.10
2011,03,04,07,45,17.70
2011,03,04,07,46,9.60
2011,03,04,07,47,6.40
2011,03,04,07,48,6.40
2011,03,04,07,49,14.50
2011,03,04,07,50,8.10
2011,03,04,07,51,6.40
2011,03,04,07,52,11.30
2011,03,04,07,53,17.70
2011,03,04,07,54,17.70
2011,03,04,07,55,12.90
2011,03,04,07,56,20.90
2011,03,04,07,57,25.70
2011,03,04,07,58,24.20
2011,03,04,07,59,22.50
2011,03,04,08,00,12.90
2011,03,04,08,01,22.50
2011,03,04,08,02,27.40
2011,03,04,08,03,9.60
2011,03,04,08,04,9.60
2011,03,04,08,05,12.90
2011,03,04,08,06,24.20
2011,03,04,08,07,30.60
2011,03,04,08,08,16.10
2011,03,04,08,09,29.00
2011,03,04,08,10,25.70
2011,03,04,08,11,33.80
2011,03,04,08,12,25.70
2011,03,04,08,13,25.70
2011,03,04,08,14,22.50
2011,03,04,08,15,14.50
2011,03,04,08,16,11.30
2011,03,04,08,17,14.50
2011,03,04,08,18,24.20
2011,03,04,08,19,20.90
2011,03,04,08,20,32.20
2011,03,04,08,21,24.20
2011,03,04,08,22,14.50
2011,03,04,08,23,16.10
2011,03,04,08,24,16.10
2011,03,04,08,25,19.30
2011,03,04,08,26,24.20
2011,03,04,08,27,12.90
2011,03,04,08,28,9.60
2011,03,04,08,29,16.10
2011,03,04,08,30,22.50
2011,03,04,08,31,14.50
2011,03,04,08,32,25.70
2011,03,04,08,33,20.90
2011,03,04,08,34,19.30
2011,03,04,08,35,40.20
2011,03,04,08,36,22.50
2011,03,04,08,37,11.30
2011,03,04,08,38,20.90
2011,03,04,08,39,27.40
2011,03,04,08,40,17.70
2011,03,04,08,41,11.30
2011,03,04,08,42,25.70
2011,03,04,08,43,43.50
2011,03,04,08,44,33.80
2011,03,04,08,45,12.90
2011,03,04,08,46,32.20
2011,03,04,08,47,27.40
2011,03,04,08,48,33.80
2011,03,04,08,49,29.00
2011,03,04,08,50,12.90
2011,03,04,08,51,14.50
2011,03,04,08,52,14.50
2011,03,04,08,53,20.90
2011,03,04,08,54,14.50
2011,03,04,08,55,11.30
2011,03,04,08,56,12.90
2011,03,04,08,57,9.60
2011,03,04,08,58,32.20
2011,03,04,08,59,24.20
2011,03,04,09,00,12.90
2011,03,04,09,01,35.40
2011,03,04,09,02,17.70
2011,03,04,09,03,8.10
2011,03,04,09,04,11.30
2011,03,04,09,05,9.60
2011,03,04,09,06,8.10
2011,03,04,09,07,29.00
2011,03,04,09,08,22.50
2011,03,04,09,09,24.20
2011,03,04,09,10,30.60
2011,03,04,09,11,20.90
2011,03,04,09,12,22.50
2011,03,04,09,13,29.00
2011,03,04,09,14,22.50
2011,03,04,09,15,20.90
2011,03,04,09,16,30.60
2011,03,04,09,17,24.20
2011,03,04,09,18,43.50
2011,03,04,09,19,24.20
2011,03,04,09,20,14.50
2011,03,04,09,21,22.50
2011,03,04,09,22,22.50
2011,03,04,09,23,14.50
2011,03,04,09,24,22.50
2011,03,04,09,25,19.30
2011,03,04,09,26,30.60
2011,03,04,09,27,29.00
2011,03,04,09,28,22.50
2011,03,04,09,29,24.20
2011,03,04,09,30,24.20
2011,03,04,09,31,27.40
2011,03,04,09,32,30.60
2011,03,04,09,33,12.90
2011,03,04,09,34,20.90
2011,03,04,09,35,25.70
2011,03,04,09,36,25.70
2011,03,04,09,37,30.60
2011,03,04,09,38,17.70
2011,03,04,09,39,30.60
2011,03,04,09,40,11.30
2011,03,04,09,41,37.00
2011,03,04,09,42,29.00
2011,03,04,09,43,9.60
2011,03,04,09,44,8.10
2011,03,04,09,45,29.00
2011,03,04,09,46,27.40
2011,03,04,09,47,29.00
2011,03,04,09,48,22.50
2011,03,04,09,49,20.90
2011,03,04,09,50,20.90
2011,03,04,09,51,17.70
2011,03,04,09,52,20.90
2011,03,04,09,53,30.60
2011,03,04,09,54,20.90
2011,03,04,09,55,24.20
2011,03,04,09,56,29.00
2011,03,04,09,57,16.10
2011,03,04,09,58,22.50
2011,03,04,09,59,19.30
2011,03,04,10,00,22.50
2011,03,04,10,01,27.40
2011,03,04,10,02,19.30
2011,03,04,10,03,12.90
2011,03,04,10,04,12.90
2011,03,04,10,05,17.70
2011,03,04,10,06,35.40
2011,03,04,10,07,30.60
2011,03,04,10,08,19.30
2011,03,04,10,09,35.40
2011,03,04,10,10,25.70
2011,03,04,10,11,17.70
2011,03,04,10,12,11.30
2011,03,04,10,13,22.50
2011,03,04,10,14,12.90
2011,03,04,10,15,27.40
2011,03,04,10,16,16.10
2011,03,04,10,17,20.90
2011,03,04,10,18,22.50
2011,03,04,10,19,29.00
2011,03,04,10,20,27.40
2011,03,04,10,21,27.40
2011,03,04,10,22,12.90
2011,03,04,10,23,19.30
2011,03,04,10,24,25.70
2011,03,04,10,25,40.20
2011,03,04,10,26,30.60
2011,03,04,10,27,40.20
2011,03,04,10,28,37.00
2011,03,04,10,29,25.70
2011,03,04,10,30,37.00
2011,03,04,10,31,19.30
2011,03,04,10,32,37.00
2011,03,04,10,33,12.90
2011,03,04,10,34,33.80
2011,03,04,10,35,25.70
2011,03,04,10,36,22.50
2011,03,04,10,37,33.80
2011,03,04,10,38,32.20
2011,03,04,10,39,24.20
2011,03,04,10,40,49.90
2011,03,04,10,41,40.20
2011,03,04,10,42,30.60
2011,03,04,10,43,35.40
2011,03,04,10,44,19.30
2011,03,04,10,45,19.30
2011,03,04,10,46,27.40
2011,03,04,10,47,25.70
2011,03,04,10,48,20.90
2011,03,04,10,49,29.00
2011,03,04,10,50,30.60
2011,03,04,10,51,27.40
2011,03,04,10,52,27.40
2011,03,04,10,53,27.40
2011,03,04,10,54,24.20
2011,03,04,10,55,27.40
2011,03,04,10,56,40.20
2011,03,04,10,57,11.30
2011,03,04,10,58,22.50
2011,03,04,10,59,20.90
2011,03,04,11,00,20.90
2011,03,04,11,01,32.20
2011,03,04,11,02,33.80
2011,03,04,11,03,27.40
2011,03,04,11,04,19.30
2011,03,04,11,05,19.30
2011,03,04,11,06,20.90
2011,03,04,11,07,20.90
2011,03,04,11,08,16.10
2011,03,04,11,09,19.30
2011,03,04,11,10,22.50
2011,03,04,11,11,30.60
2011,03,04,11,12,16.10
2011,03,04,11,13,22.50
2011,03,04,11,14,22.50
2011,03,04,11,15,22.50
2011,03,04,11,16,33.80
2011,03,04,11,17,16.10
2011,03,04,11,18,19.30
2011,03,04,11,19,14.50
2011,03,04,11,20,12.90
2011,03,04,11,21,14.50
2011,03,04,11,22,22.50
2011,03,04,11,23,14.50
2011,03,04,11,24,17.70
2011,03,04,11,25,14.50
2011,03,04,11,26,12.90
2011,03,04,11,27,22.50
2011,03,04,11,28,22.50
2011,03,04,11,29,14.50
2011,03,04,11,30,32.20
2011,03,04,11,31,22.50
2011,03,04,11,32,19.30
2011,03,04,11,33,12.90
2011,03,04,11,34,19.30
2011,03,04,11,35,17.70
2011,03,04,11,36,24.20
2011,03,04,11,37,32.20
2011,03,04,11,38,29.00
2011,03,04,11,39,25.70
2011,03,04,11,40,27.40
2011,03,04,11,41,12.90
2011,03,04,11,42,20.90
2011,03,04,11,43,20.90
2011,03,04,11,44,14.50
2011,03,04,11,45,12.90
2011,03,04,11,46,27.40
2011,03,04,11,47,20.90
2011,03,04,11,48,25.70
2011,03,04,11,49,11.30
2011,03,04,11,50,20.90
2011,03,04,11,51,24.20
2011,03,04,11,52,22.50
2011,03,04,11,53,22.50
2011,03,04,11,54,22.50
2011,03,04,11,55,24.20
2011,03,04,11,56,24.20
2011,03,04,11,57,19.30
2011,03,04,11,58,25.70
2011,03,04,11,59,20.90
2011,03,04,12,00,29.00
2011,03,04,12,01,33.80
2011,03,04,12,02,24.20
2011,03,04,12,03,20.90
2011,03,04,12,04,27.40
2011,03,04,12,05,25.70
2011,03,04,12,06,19.30
2011,03,04,12,07,25.70
2011,03,04,12,08,24.20
2011,03,04,12,09,19.30
2011,03,04,12,10,29.00
2011,03,04,12,11,29.00
2011,03,04,12,12,33.80
2011,03,04,12,13,37.00
2011,03,04,12,14,30.60
2011,03,04,12,15,30.60
2011,03,04,12,16,24.20
2011,03,04,12,17,38.60
2011,03,04,12,18,45.10
2011,03,04,12,19,38.60
2011,03,04,12,20,35.40
2011,03,04,12,21,37.00
2011,03,04,12,22,33.80
2011,03,04,12,23,33.80
2011,03,04,12,24,43.50
2011,03,04,12,25,33.80
2011,03,04,12,26,43.50
2011,03,04,12,27,35.40
2011,03,04,12,28,46.70
2011,03,04,12,29,43.50
2011,03,04,12,30,33.80
2011,03,04,12,31,32.20
2011,03,04,12,32,27.40
2011,03,04,12,33,41.80
2011,03,04,12,34,40.20
2011,03,04,12,35,37.00
2011,03,04,12,36,22.50
2011,03,04,12,37,38.60
2011,03,04,12,38,27.40
2011,03,04,12,39,27.40
2011,03,04,12,40,45.10
2011,03,04,12,41,51.50
2011,03,04,12,42,32.20
2011,03,04,12,43,33.80
2011,03,04,12,44,27.40
2011,03,04,12,45,32.20
2011,03,04,12,46,32.20
2011,03,04,12,47,24.20
2011,03,04,12,48,37.00
2011,03,04,12,49,29.00
2011,03,04,12,50,24.20
2011,03,04,12,51,25.70
2011,03,04,12,52,24.20
2011,03,04,12,53,22.50
2011,03,04,12,54,32.20
2011,03,04,12,55,30.60
2011,03,04,12,56,29.00
2011,03,04,12,57,20.90
2011,03,04,12,58,29.00
2011,03,04,12,59,29.00
2011,03,04,13,00,33.80
2011,03,04,13,01,40.20
2011,03,04,13,02,19.30
2011,03,04,13,03,24.20
2011,03,04,13,04,37.00
2011,03,04,13,05,38.60
2011,03,04,13,06,24.20
2011,03,04,13,07,43.50
2011,03,04,13,08,33.80
2011,03,04,13,09,27.40
2011,03,04,13,10,38.60
2011,03,04,13,11,43.50
2011,03,04,13,12,49.90
2011,03,04,13,13,49.90
2011,03,04,13,14,41.80
2011,03,04,13,15,20.90
2011,03,04,13,16,56.30
2011,03,04,13,17,40.20
2011,03,04,13,18,19.30
2011,03,04,13,19,14.50
2011,03,04,13,20,25.70
2011,03,04,13,21,20.90
2011,03,04,13,22,33.80
2011,03,04,13,23,45.10
2011,03,04,13,24,30.60
2011,03,04,13,25,37.00
2011,03,04,13,26,38.60
2011,03,04,13,27,37.00
2011,03,04,13,28,24.20
2011,03,04,13,29,32.20
2011,03,04,13,30,41.80
2011,03,04,13,31,17.70
2011,03,04,13,32,29.00
2011,03,04,13,33,24.20
2011,03,04,13,34,33.80
2011,03,04,13,35,38.60
2011,03,04,13,36,27.40
2011,03,04,13,37,29.00
2011,03,04,13,38,30.60
2011,03,04,13,39,37.00
2011,03,04,13,40,17.70
2011,03,04,13,41,22.50
2011,03,04,13,42,27.40
2011,03,04,13,43,22.50
2011,03,04,13,44,29.00
2011,03,04,13,45,29.00
2011,03,04,13,46,30.60
2011,03,04,13,47,29.00
2011,03,04,13,48,37.00
2011,03,04,13,49,25.70
2011,03,04,13,50,32.20
2011,03,04,13,51,30.60
2011,03,04,13,52,29.00
2011,03,04,13,53,20.90
2011,03,04,13,54,24.20
2011,03,04,13,55,22.50
2011,03,04,13,56,20.90
2011,03,04,13,57,19.30
2011,03,04,13,58,22.50
2011,03,04,13,59,19.30
2011,03,04,14,00,24.20
2011,03,04,14,01,32.20
2011,03,04,14,02,19.30
2011,03,04,14,03,11.30
2011,03,04,14,04,11.30
2011,03,04,14,05,19.30
2011,03,04,14,06,11.30
2011,03,04,14,07,9.60
2011,03,04,14,08,17.70
2011,03,04,14,09,24.20
2011,03,04,14,10,20.90
2011,03,04,14,11,17.70
2011,03,04,14,12,19.30
2011,03,04,14,13,24.20
2011,03,04,14,14,22.50
2011,03,04,14,15,12.90
2011,03,04,14,16,25.70
2011,03,04,14,17,11.30
2011,03,04,14,18,27.40
2011,03,04,14,19,37.00
2011,03,04,14,20,24.20
2011,03,04,14,21,33.80
2011,03,04,14,22,17.70
2011,03,04,14,23,19.30
2011,03,04,14,24,19.30
2011,03,04,14,25,19.30
2011,03,04,14,26,20.90
2011,03,04,14,27,29.00
2011,03,04,14,28,29.00
2011,03,04,14,29,24.20
2011,03,04,14,30,45.10
2011,03,04,14,31,8.10
2011,03,04,14,32,22.50
2011,03,04,14,33,33.80
2011,03,04,14,34,30.60
2011,03,04,14,35,29.00
2011,03,04,14,36,41.80
2011,03,04,14,37,45.10
2011,03,04,14,38,32.20
2011,03,04,14,39,24.20
2011,03,04,14,40,33.80
2011,03,04,14,41,22.50
2011,03,04,14,42,22.50
2011,03,04,14,43,19.30
2011,03,04,14,44,46.70
2011,03,04,14,45,35.40
2011,03,04,14,46,22.50
2011,03,04,14,47,29.00
2011,03,04,14,48,32.20
2011,03,04,14,49,27.40
2011,03,04,14,50,32.20
2011,03,04,14,51,38.60
2011,03,04,14,52,22.50
2011,03,04,14,53,30.60
2011,03,04,14,54,32.20
2011,03,04,14,55,25.70
2011,03,04,14,56,37.00
2011,03,04,14,57,43.50
2011,03,04,14,58,24.20
2011,03,04,14,59,16.10
2011,03,04,15,00,20.90
2011,03,04,15,01,32.20
2011,03,04,15,02,25.70
2011,03,04,15,03,22.50
2011,03,04,15,04,24.20
2011,03,04,15,05,17.70
2011,03,04,15,06,16.10
2011,03,04,15,07,24.20
2011,03,04,15,08,29.00
2011,03,04,15,09,29.00
2011,03,04,15,10,27.40
2011,03,04,15,11,37.00
2011,03,04,15,12,25.70
2011,03,04,15,13,27.40
2011,03,04,15,14,24.20
2011,03,04,15,15,19.30
2011,03,04,15,16,14.50
2011,03,04,15,17,11.30
2011,03,04,15,18,12.90
2011,03,04,15,19,33.80
2011,03,04,15,20,30.60
2011,03,04,15,21,20.90
2011,03,04,15,22,24.20
2011,03,04,15,23,14.50
2011,03,04,15,24,27.40
2011,03,04,15,25,20.90
2011,03,04,15,26,14.50
2011,03,04,15,27,17.70
2011,03,04,15,28,16.10
2011,03,04,15,29,11.30
2011,03,04,15,30,32.20
2011,03,04,15,31,20.90
2011,03,04,15,32,29.00
2011,03,04,15,33,11.30
2011,03,04,15,34,11.30
2011,03,04,15,35,17.70
2011,03,04,15,36,25.70
2011,03,04,15,37,12.90
2011,03,04,15,38,20.90
2011,03,04,15,39,19.30
2011,03,04,15,40,35.40
2011,03,04,15,41,27.40
2011,03,04,15,42,22.50
2011,03,04,15,43,32.20
2011,03,04,15,44,22.50
2011,03,04,15,45,14.50
2011,03,04,15,46,16.10
2011,03,04,15,47,11.30
2011,03,04,15,48,25.70
2011,03,04,15,49,22.50
2011,03,04,15,50,25.70
2011,03,04,15,51,37.00
2011,03,04,15,52,30.60
2011,03,04,15,53,24.20
2011,03,04,15,54,40.20
2011,03,04,15,55,20.90
2011,03,04,15,56,24.20
2011,03,04,15,57,43.50
2011,03,04,15,58,30.60
2011,03,04,15,59,24.20
2011,03,04,16,00,22.50
2011,03,04,16,01,24.20
2011,03,04,16,02,24.20
2011,03,04,16,03,19.30
2011,03,04,16,04,20.90
2011,03,04,16,05,29.00
2011,03,04,16,06,30.60
2011,03,04,16,07,17.70
2011,03,04,16,08,11.30
2011,03,04,16,09,8.10
2011,03,04,16,10,12.90
2011,03,04,16,11,11.30
2011,03,04,16,12,9.60
2011,03,04,16,13,9.60
2011,03,04,16,14,17.70
2011,03,04,16,15,20.90
2011,03,04,16,16,17.70
2011,03,04,16,17,25.70
2011,03,04,16,18,19.30
2011,03,04,16,19,25.70
2011,03,04,16,20,17.70
2011,03,04,16,21,20.90
2011,03,04,16,22,19.30
2011,03,04,16,23,12.90
2011,03,04,16,24,16.10
2011,03,04,16,25,14.50
2011,03,04,16,26,33.80
2011,03,04,16,27,14.50
2011,03,04,16,28,12.90
2011,03,04,16,29,17.70
2011,03,04,16,30,19.30
2011,03,04,16,31,14.50
2011,03,04,16,32,19.30
2011,03,04,16,33,12.90
2011,03,04,16,34,20.90
2011,03,04,16,35,12.90
2011,03,04,16,36,12.90
2011,03,04,16,37,22.50
2011,03,04,16,38,19.30
2011,03,04,16,39,19.30
2011,03,04,16,40,19.30
2011,03,04,16,41,12.90
2011,03,04,16,42,17.70
2011,03,04,16,43,14.50
2011,03,04,16,44,22.50
2011,03,04,16,45,11.30
2011,03,04,16,46,14.50
2011,03,04,16,47,17.70
2011,03,04,16,48,11.30
2011,03,04,16,49,9.60
2011,03,04,16,50,9.60
2011,03,04,16,51,12.90
2011,03,04,16,52,11.30
2011,03,04,16,53,16.10
2011,03,04,16,54,14.50
2011,03,04,16,55,16.10
2011,03,04,16,56,9.60
2011,03,04,16,57,14.50
2011,03,04,16,58,20.90
2011,03,04,16,59,19.30
2011,03,04,17,00,12.90
2011,03,04,17,01,11.30
2011,03,04,17,02,20.90
2011,03,04,17,03,19.30
2011,03,04,17,04,11.30
2011,03,04,17,05,9.60
2011,03,04,17,06,22.50
2011,03,04,17,07,22.50
2011,03,04,17,08,20.90
2011,03,04,17,09,22.50
2011,03,04,17,10,12.90
2011,03,04,17,11,14.50
2011,03,04,17,12,11.30
2011,03,04,17,13,25.70
2011,03,04,17,14,14.50
2011,03,04,17,15,12.90
2011,03,04,17,16,12.90
2011,03,04,17,17,9.60
2011,03,04,17,18,14.50
2011,03,04,17,19,24.20
2011,03,04,17,20,9.60
2011,03,04,17,21,8.10
2011,03,04,17,22,9.60
2011,03,04,17,23,11.30
2011,03,04,17,24,9.60
2011,03,04,17,25,12.90
2011,03,04,17,26,8.10
2011,03,04,17,27,12.90
2011,03,04,17,28,14.50
2011,03,04,17,29,20.90
2011,03,04,17,30,25.70
2011,03,04,17,31,12.90
2011,03,04,17,32,12.90
2011,03,04,17,33,24.20
2011,03,04,17,34,17.70
2011,03,04,17,35,20.90
2011,03,04,17,36,12.90
2011,03,04,17,37,20.90
2011,03,04,17,38,22.50
2011,03,04,17,39,24.20
2011,03,04,17,40,22.50
2011,03,04,17,41,27.40